Weather History for Avord, France

Change the Weather History Date:

Wednesday, April 3, 2013

  Actual Average Record
Temperature  
Mean Temperature 40 °F -  
Max Temperature 51 °F - - ()
Min Temperature 28 °F - - ()
Degree Days  
Heating Degree Days 26    
Moisture  
Dew Point 26 °F    
Average Humidity 59    
Maximum Humidity 87    
Minimum Humidity 35    
Precipitation  
Precipitation 0.00 in - - ()
Sea Level Pressure  
Sea Level Pressure 29.76 in    
Wind  
Wind Speed 5 mph ()    
Max Wind Speed 14 mph    
Max Gust Speed -    
Visibility 5.0 miles    
Events      
T = Trace of Precipitation, MM = Missing Value Source: Averaged Metar Reports

Daily Weather History Graph

Daily Weather History Graph

Search for Another Location

Airport:

Trip Planner

Search our weather history database for the weather conditions in past years. The results will help you decide how hot, cold, wet, or windy it might be!

Date:

Astronomy

Apr. 03, 2013 Rise Set
Actual Time 7:24 AM CEST 8:21 PM CEST
Civil Twilight 6:53 AM CEST 8:52 PM CEST
Nautical Twilight 6:16 AM CEST 9:29 PM CEST
Astronomical Twilight 5:37 AM CEST 10:09 PM CEST
Moon 3:18 AM CEST (4/3) 12:52 PM CEST (4/3)
Length of Visible Light 13h 59m
Length of Day
12h 57m
Waning Gibbous, 47% of the Moon is Illuminated
Apr 3
Waning Gibbous
Apr 10
New
Apr 18
First Quarter
Apr 25
Full
May 2
Last Quarter

Hourly Weather History & Observations

Time (CEST) Temp. Windchill Dew Point Humidity Pressure Visibility Wind Dir Wind Speed Gust Speed Precip Events Conditions
12:00 AM 37.4 °F 32.1 °F 24.8 °F 60% 29.77 in 5.6 mi North 6.9 mph - N/A   Unknown
12:30 AM 37.4 °F 32.8 °F 24.8 °F 60% 29.80 in 6.2 mi North 5.8 mph - N/A   Unknown
1:00 AM 35.6 °F 31.7 °F 23.0 °F 60% 29.80 in 6.2 mi NNW 4.6 mph - N/A   Unknown
1:30 AM 32.0 °F 27.5 °F 24.8 °F 75% 29.80 in 4.3 mi NNW 4.6 mph - N/A   Unknown
2:00 AM 32.0 °F 28.7 °F 24.8 °F 75% 29.80 in 3.7 mi NW 3.5 mph - N/A   Unknown
2:30 AM 32.0 °F - 24.8 °F 75% 29.80 in 4.3 mi NW 2.3 mph - N/A   Unknown
3:00 AM 30.2 °F - 24.8 °F 80% 29.80 in 3.7 mi Variable 2.3 mph - N/A   Unknown
3:30 AM 30.2 °F 26.7 °F 23.0 °F 75% 29.80 in 3.7 mi WNW 3.5 mph - N/A   Unknown
4:00 AM 30.2 °F 25.4 °F 24.8 °F 80% 29.80 in 4.3 mi WNW 4.6 mph - N/A   Unknown
4:30 AM 28.4 °F 24.6 °F 24.8 °F 86% 29.80 in 3.7 mi NW 3.5 mph - N/A   Unknown
5:00 AM 30.2 °F - 24.8 °F 80% 29.80 in 4.3 mi Calm Calm - N/A   Unknown
5:30 AM 30.2 °F - 24.8 °F 80% 29.80 in 4.3 mi Calm Calm - N/A   Unknown
6:00 AM 30.2 °F - 24.8 °F 80% 29.80 in 4.3 mi Calm Calm - N/A   Unknown
6:30 AM 28.4 °F - 23.0 °F 80% 29.80 in 3.7 mi Calm Calm - N/A   Unknown
7:00 AM 28.4 °F - 24.8 °F 86% 29.80 in 3.7 mi WSW 1.2 mph - N/A   Unknown
7:30 AM 28.4 °F - 24.8 °F 86% 29.80 in 3.1 mi Variable 1.2 mph - N/A   Mist
8:00 AM 30.2 °F - 24.8 °F 80% 29.80 in 3.7 mi SW 2.3 mph - N/A   Unknown
8:30 AM 30.2 °F - 26.6 °F 86% 29.80 in 3.1 mi Calm Calm - N/A   Mist
9:00 AM 32.0 °F - 28.4 °F 87% 29.80 in 3.1 mi Calm Calm - N/A   Mist
9:30 AM 37.4 °F - 28.4 °F 70% 29.80 in 5.0 mi Calm Calm - N/A   Unknown
10:00 AM 41.0 °F 39.0 °F 28.4 °F 61% 29.80 in 5.6 mi Variable 3.5 mph - N/A   Unknown
10:30 AM 41.0 °F 35.8 °F 28.4 °F 61% 29.80 in 5.6 mi ENE 8.1 mph - N/A   Unknown
11:00 AM 44.6 °F 40.2 °F 28.4 °F 53% 29.80 in 5.6 mi ENE 8.1 mph - N/A   Unknown
11:30 AM 46.4 °F 41.5 °F 28.4 °F 50% 29.80 in 6.2 mi NE 10.4 mph - N/A   Unknown
12:00 PM 48.2 °F - 26.6 °F 43% 29.77 in 5.6 mi NE 13.8 mph - N/A   Unknown
12:30 PM 48.2 °F - 26.6 °F 43% 29.77 in 6.2 mi NE 10.4 mph - N/A   Partly Cloudy
1:00 PM 48.2 °F - 23.0 °F 37% 29.77 in 6.2 mi ENE 9.2 mph - N/A   Unknown
1:30 PM 48.2 °F - 24.8 °F 40% 29.77 in 6.2 mi Variable 5.8 mph - N/A   Unknown
2:00 PM 50.0 °F - 26.6 °F 40% 29.77 in 5.6 mi North 8.1 mph - N/A   Unknown
2:30 PM 50.0 °F - 24.8 °F 37% 29.74 in 6.2 mi NE 4.6 mph - N/A   Unknown
3:00 PM 50.0 °F - 24.8 °F 37% 29.74 in 6.2 mi North 10.4 mph - N/A   Unknown
3:30 PM 50.0 °F - 26.6 °F 40% 29.74 in 6.2 mi NNE 8.1 mph - N/A   Unknown
4:00 PM 51.8 °F - 26.6 °F 38% 29.74 in 6.2 mi North 6.9 mph - N/A   Unknown
4:30 PM 51.8 °F - 24.8 °F 35% 29.74 in 6.2 mi NNE 10.4 mph - N/A   Unknown
5:00 PM 51.8 °F - 26.6 °F 38% 29.71 in 6.2 mi North 9.2 mph - N/A   Unknown
5:30 PM 50.0 °F - 26.6 °F 40% 29.71 in 6.2 mi NNE 9.2 mph - N/A   Unknown
6:00 PM 50.0 °F - 24.8 °F 37% 29.71 in 6.2 mi North 10.4 mph - N/A   Unknown
6:30 PM 50.0 °F - 24.8 °F 37% 29.71 in 6.2 mi NE 11.5 mph - N/A   Unknown
7:00 PM 48.2 °F - 26.6 °F 43% 29.71 in 6.2 mi North 10.4 mph - N/A   Unknown
7:30 PM 48.2 °F - 26.6 °F 43% 29.71 in 6.2 mi North 11.5 mph - N/A   Unknown
8:00 PM 46.4 °F 41.5 °F 26.6 °F 46% 29.71 in 6.2 mi NNE 10.4 mph - N/A   Unknown
8:30 PM 44.6 °F 39.7 °F 26.6 °F 49% 29.71 in 6.2 mi NNE 9.2 mph - N/A   Unknown
9:00 PM 42.8 °F 37.5 °F 26.6 °F 53% 29.71 in 5.6 mi NNE 9.2 mph - N/A   Unknown
9:30 PM 42.8 °F 37.5 °F 28.4 °F 57% 29.71 in 5.0 mi North 9.2 mph - N/A   Unknown
10:00 PM 42.8 °F 37.5 °F 28.4 °F 57% 29.71 in 4.3 mi NNE 9.2 mph - N/A   Unknown
10:30 PM 41.0 °F 34.3 °F 28.4 °F 61% 29.71 in 3.7 mi NNE 11.5 mph - N/A   Unknown
11:00 PM 39.2 °F 33.0 °F 28.4 °F 65% 29.71 in 3.1 mi North 9.2 mph - N/A   Mist
11:30 PM 39.2 °F 33.0 °F 30.2 °F 70% 29.68 in 3.1 mi North 9.2 mph - N/A   Mist